{"data":{"norad_id":59777,"epoch":"2026-09-22T14:25:17.387616Z","epoch_age_seconds":91240,"freshness":"FRESH","line1":"1 59777U 24092E   26265.60089569  .00016821  00000+0  42064-3 0  9992","line2":"2 59777  97.6690  42.9701 0006906 155.7488 204.4084 15.40177377130723","mean_motion":15.40177377,"eccentricity":0.0006906,"inclination_deg":97.669,"raan_deg":42.9701,"arg_perigee_deg":155.7488,"mean_anomaly_deg":204.4084,"bstar":0.00042064,"rev_number":13072,"period_min":93.495724681067,"perigee_km":440.87289507414,"apogee_km":450.29782039465,"semimajor_km":6823.7223577344,"source":"CELESTRAK","updated_at":"2026-09-23T09:00:19.580136Z"}}